CAPE
0 2 2 5 2 1 0 4 9 13 13 13 25 22 13 17 21 26 24 13 20 10 1 7 7 10 1 2 0 1 0 0 0 2 10 4 2 1 0 0 0 0 0 0 0 0 0 0 0 0 0 0 0 0
1 2 3 3 2 1 1 2 10 10 17 16 21 20 13 16 20 22 17 18 17 22 0 0 3 2 2 0 0 5 4 5 12 2 4 2 3 2 0 1 0 0 0 0 0 1 0 0 0 0 0 0 0 0
2 3 3 4 2 2 2 1 8 14 8 13 24 14 12 15 8 15 13 18 21 7 0 0 0 0 0 0 0 5 0 0 6 0 1 2 2 0 1 0 0 0 0 0 0 0 0 0 0 0 0 0 0 0
1 2 3 2 3 2 1 3 10 18 4 8 16 11 13 11 3 4 6 18 22 3 2 0 0 0 0 0 0 1 0 1 4 1 2 0 0 0 0 0 0 0 0 0 0 0 0 0 0 0 0 0 0 0
0 2 3 4 3 2 0 1 3 22 4 5 8 6 16 6 6 4 13 10 1 1 0 1 0 0 0 0 0 0 1 0 5 9 1 0 0 0 0 0 0 0 0 0 0 0 0 0 0 0 0 0 0 0
2 2 3 3 3 2 1 6 6 23 3 3 2 10 4 0 4 3 3 1 20 11 1 0 0 0 0 0 0 0 3 2 1 2 1 1 0 0 0 0 0 0 0 0 0 0 0 0 0 0 0 0 0 0
2 1 3 3 3 3 2 3 15 3 2 0 3 2 0 0 21 2 0 0 7 10 0 2 2 0 0 0 0 0 1 0 1 1 0 0 0 0 0 0 0 0 0 0 0 0 0 0 0 0 0 0 0 0
2 2 3 3 2 2 2 8 2 1 0 2 0 0 0 16 2 5 0 0 13 7 1 0 0 0 0 0 0 0 0 0 0 0 0 0 0 0 0 0 0 0 0 0 0 0 0 0 0 0 0 0 0 0
2 3 3 4 3 5 10 2 1 0 0 0 0 0 0 0 0 1 1 0 0 0 0 0 0 0 0 0 0 0 0 1 0 0 0 0 0 0 0 0 0 0 0 0 0 0 0 0 0 0 0 0 0 0
2 3 4 4 4 9 1 0 0 1 0 0 0 0 0 0 0 0 0 0 0 0 0 0 0 0 0 0 0 0 0 0 0 0 0 0 0 0 0 0 0 0 0 0 0 0 0 0 0 0 0 0 0 0
4 4 4 1 4 1 0 1 0 0 0 0 0 0 3 0 0 0 0 0 0 0 0 0 0 0 0 0 0 0 0 0 0 0 0 0 0 0 0 0 0 0 0 0 0 0 0 0 0 0 0 0 0 0
4 4 0 1 0 0 0 2 2 1 0 0 0 1 0 0 0 0 0 0 0 0 0 0 0 0 0 0 1 0 0 0 0 0 0 0 0 0 0 0 0 0 0 0 0 0 0 0 0 0 0 0 0 0
2 2 0 0 0 0 1 1 1 0 0 0 0 0 0 0 0 0 0 0 0 0 0 0 0 0 0 0 0 0 0 0 0 0 0 0 0 0 0 0 0 0 0 0 0 0 0 0 0 0 0 0 0 0
4 0 0 0 0 0 4 0 0 0 0 0 0 0 0 0 0 0 0 0 0 0 0 0 0 0 0 0 0 0 0 0 0 0 0 0 0 0 0 0 0 0 0 0 0 0 0 0 0 0 0 0 0 0
0 1 1 2 0 2 0 0 0 0 0 0 0 0 0 0 0 0 0 0 0 0 0 0 0 0 0 0 0 0 0 0 0 0 0 0 0 0 0 0 0 0 0 0 0 0 0 0 0 0 0 0 0 0
0 0 2 0 2 0 0 0 0 0 0 0 0 0 0 0 0 0 0 0 0 0 0 0 0 0 0 0 0 0 0 0 0 0 0 0 0 0 0 0 0 0 0 0 0 0 0 0 0 0 0 0 0 0
1 1 1 1 0 0 0 0 0 0 0 0 0 0 1 0 0 0 0 0 0 0 0 0 0 0 0 0 0 0 0 0 0 0 0 0 0 0 0 0 0 0 0 0 0 0 0 0 0 0 0 0 0 0
2 1 0 0 0 0 0 0 0 0 0 0 0 1 0 0 0 0 0 0 0 0 0 0 0 0 0 0 0 0 0 0 0 0 0 0 0 0 0 0 0 0 0 0 0 0 0 0 0 0 0 0 0 0
0 0 0 0 0 0 0 0 0 0 0 0 0 0 0 0 0 0 0 0 0 0 0 0 0 0 0 0 0 0 0 0 0 0 0 0 0 0 0 0 0 0 0 0 0 0 0 0 0 0 0 0 0 0
0 0 0 0 0 0 0 0 0 0 0 0 0 0 0 0 0 0 0 0 0 0 0 0 0 0 0 0 0 0 0 0 0 0 0 0 0 0 0 0 0 0 0 0 0 0 0 0 0 0 0 0 0 0
0 0 0 0 0 0 0 0 0 0 0 0 0 0 0 0 0 0 0 0 0 0 0 0 0 0 0 0 0 0 0 0 0 0 0 0 0 0 0 0 0 0 0 0 0 0 0 0 0 0 0 0 0 0
0 0 0 0 0 0 0 0 0 0 0 0 0 0 0 0 0 0 0 0 0 0 0 0 0 0 0 0 0 0 0 0 0 0 0 0 0 0 0 0 0 0 0 0 0 0 0 0 0 0 0 0 0 0
0 0 0 0 0 0 0 0 0 0 0 0 0 0 0 0 0 0 0 0 0 0 0 0 0 0 0 0 0 0 0 0 0 0 0 0 0 0 0 0 0 0 0 0 0 0 0 0 0 0 0 0 0 0
0 0 0 0 0 0 0 0 0 0 0 0 0 0 0 0 0 0 0 0 0 0 0 0 0 0 0 0 0 0 0 0 0 0 0 0 0 0 0 0 0 0 0 0 0 0 0 0 0 0 0 0 0 0
0 0 0 0 0 0 0 0 0 0 0 0 0 0 0 0 0 0 0 0 0 0 0 0 0 0 0 0 0 0 0 0 0 0 0 0 0 0 0 0 0 0 0 0 0 0 0 0 0 0 0 0 0 0
0 0 0 0 0 0 0 0 0 0 0 0 0 0 0 0 0 0 0 0 0 0 0 0 0 0 0 0 0 0 0 0 0 0 0 0 0 0 0 0 0 0 0 0 0 0 0 0 0 0 0 0 0 0
0 0 0 0 0 0 0 0 0 0 0 0 0 0 0 0 0 0 0 0 0 0 0 0 0 0 0 0 0 0 0 0 0 0 0 0 0 0 0 0 0 0 0 0 0 0 0 0 0 0 0 0 0 0
0 0 0 0 0 0 0 0 0 0 0 0 0 0 0 0 0 0 0 0 0 0 0 0 0 0 0 0 0 0 0 0 0 0 0 0 0 0 0 0 0 0 0 0 0 0 0 0 0 0 0 0 0 0
0 0 0 0 0 0 0 0 0 0 0 0 0 0 0 0 0 0 0 0 0 0 0 0 0 0 0 0 0 0 0 0 0 0 0 0 0 0 0 0 0 0 0 0 0 1 1 0 0 0 0 0 0 0
0 0 0 0 0 0 0 0 0 0 0 0 0 0 0 0 0 0 0 0 0 0 0 0 0 0 0 0 0 0 0 0 0 0 0 0 0 0 0 0 0 0 0 0 0 0 0 0 0 0 0 0 0 0
0 0 0 0 0 0 0 0 0 0 0 0 0 0 0 0 0 0 0 0 0 0 0 0 0 0 0 0 0 0 0 0 0 0 0 0 0 0 0 0 0 0 0 0 0 0 0 0 0 0 0 0 0 0
0 0 0 0 0 0 0 0 0 0 0 0 0 0 0 0 0 0 0 0 0 0 0 0 0 0 0 0 0 0 0 0 0 0 0 0 0 0 0 0 0 0 0 0 0 0 0 0 0 0 0 0 0 0
0 0 0 0 0 0 0 0 0 0 0 0 0 0 0 0 0 0 0 0 0 0 0 0 0 0 0 0 0 0 0 0 0 0 3 8 14 7 0 0 0 0 0 0 0 0 0 0 0 0 0 0 0 0
CIN
-0 -0 -0 -0 -0 -0 -0 -1 -0 -0 -0 -0 -0 -0 -0 -0 -0 -0 -0 -7 -0 -0 -0 -0 -0 -0 -0 -0 -1 -0 -0 -0 -1 -0 -0 -2 -2 -0 -0 -0 -0 -0 -0 -0 -0 -0 -0 -0 -0 -0 -0 -0 -0 -1
-0 -0 -0 -0 -0 -0 -0 -1 -4 -0 -0 -0 -0 -0 -0 -0 -0 -0 -0 -0 -4 -0 -0 -0 -1 -1 -0 -0 -1 -0 -0 -1 -0 -0 -1 -0 -0 -1 -0 -3 -0 -0 -0 -0 -0 -0 -0 -0 -0 -0 -0 -1 -1 -1
-0 -0 -0 -0 -1 -0 -0 -22 -2 -0 -0 -0 -0 -0 -0 -0 -0 -0 -0 -0 -0 -0 -0 -0 -0 -0 -0 -0 -0 -0 -0 -0 -0 -0 -0 -0 -0 -0 -1 -0 -0 -0 -0 -0 -0 -0 -0 -0 -0 -0 -0 -0 -0 -0
-0 -0 -0 -0 -0 -0 -0 -0 -0 -0 -0 -0 -0 -0 -0 -0 -0 -0 -0 -0 -1 -1 -0 -0 -0 -0 -0 -0 -0 -0 -0 -0 -0 -0 -0 -0 -0 -0 -0 -0 -0 -0 -0 -0 -0 -0 -0 -0 -0 -0 -0 -0 -0 -0
-0 -0 -0 -0 -0 -0 -0 -0 -0 -0 -0 -0 -0 -0 -0 -0 -0 -0 -0 -5 -9 -0 -0 -0 -0 -0 -0 -0 -0 -0 -0 -1 -0 -0 -0 -0 -0 -0 -0 -0 -0 -0 -0 -0 -0 -0 -0 -0 -0 -0 -0 -0 -0 -0
-0 -0 -0 -0 -0 -0 -0 -0 -4 -0 -0 -0 -0 -0 -0 -0 -2 -6 -0 -5 -3 -0 -2 -0 -0 -0 -0 -0 -0 -0 -0 -0 -0 -0 -0 -0 -0 -0 -0 -0 -0 -0 -0 -0 -0 -0 -0 -0 -0 -0 -0 -0 -0 -0
-0 -0 -0 -0 -0 -0 -0 -0 -1 -0 -0 -0 -0 -0 -0 -0 -0 -1 -0 -0 -4 -1 -0 -0 -0 -0 -0 -0 -0 -0 -0 -0 -0 -0 -0 -0 -0 -0 -0 -0 -0 -0 -0 -0 -0 -0 -0 -0 -0 -0 -0 -0 -0 -0
-0 -0 -0 -0 -0 -0 -0 -0 -0 -0 -0 -0 -0 -0 -0 -0 -3 -0 -0 -0 -6 -0 -2 -0 -0 -0 -0 -0 -0 -0 -0 -0 -0 -0 -0 -0 -0 -0 -0 -0 -1 -0 -0 -0 -0 -0 -0 -0 -0 -0 -0 -0 -0 -0
-0 -0 -0 -0 -0 -0 -0 -0 -0 -0 -0 -0 -0 -0 -0 -0 -0 -0 -0 -0 -0 -0 -0 -0 -0 -0 -0 -0 -0 -0 -0 -0 -0 -0 -0 -0 -0 -0 -0 -0 -0 -0 -0 -0 -0 -0 -0 -0 -0 -0 -0 -0 -0 -0
-0 -0 -0 -0 -0 -0 -0 -0 -0 -0 -0 -0 -0 -0 -0 -0 -0 -0 -0 -0 -0 -0 -0 -0 -0 -0 -0 -0 -0 -0 -0 -0 -0 -0 -0 -0 -0 -0 -0 -0 -0 -0 -0 -0 -0 -0 -0 -0 -0 -0 -0 -0 -0 -0
-0 -0 -0 -0 -0 -0 -0 -0 -0 -0 -0 -0 -0 -0 -0 -0 -0 -0 -0 -0 -0 -0 -0 -0 -0 -0 -0 -0 -0 -0 -0 -0 -0 -0 -0 -0 -0 -0 -0 -0 -0 -0 -0 -0 -0 -0 -0 -0 -0 -0 -0 -0 -0 -0
-0 -0 -0 -0 -0 -0 -0 -0 -0 -0 -0 -0 -0 -0 -0 -0 -0 -0 -0 -0 -0 -0 -0 -0 -0 -0 -0 -0 -0 -0 -0 -0 -0 -0 -0 -0 -0 -0 -0 -0 -0 -0 -0 -0 -0 -0 -0 -0 -0 -0 -0 -0 -0 -0
-0 -0 -0 -0 -0 -0 -0 -0 -0 -0 -0 -0 -0 -0 -0 -0 -0 -0 -0 -0 -0 -0 -0 -0 -0 -0 -0 -0 -0 -0 -0 -0 -0 -0 -0 -0 -0 -0 -0 -0 -0 -0 -0 -0 -0 -0 -0 -0 -0 -0 -0 -0 -0 -0
-0 -0 -0 -0 -0 -0 -0 -0 -0 -0 -0 -0 -0 -0 -0 -0 -0 -0 -0 -0 -0 -0 -0 -0 -0 -0 -0 -0 -0 -0 -0 -0 -0 -0 -0 -0 -0 -0 -0 -0 -0 -0 -0 -0 -0 -0 -0 -0 -0 -0 -0 -0 -0 -0
-0 -0 -0 -0 -0 -0 -0 -0 -0 -0 -0 -0 -0 -0 -0 -0 -0 -0 -0 -0 -0 -0 -0 -0 -0 -0 -0 -0 -0 -0 -0 -0 -0 -0 -0 -0 -0 -0 -0 -0 -0 -0 -0 -0 -0 -0 -0 -0 -0 -0 -0 -0 -0 -0
-0 -0 -0 -0 -0 -0 -0 -0 -0 -0 -0 -0 -0 -0 -0 -0 -0 -0 -0 -0 -0 -0 -0 -0 -0 -0 -0 -0 -0 -0 -0 -0 -0 -0 -1 -0 -0 -0 -0 -0 -0 -0 -0 -0 -0 -0 -0 -0 -0 -0 -0 -0 -0 -0
-0 -0 -0 -0 -0 -0 -0 -0 -0 -0 -0 -0 -0 -0 -0 -0 -0 -0 -0 -0 -0 -0 -0 -0 -0 -0 -0 -0 -0 -0 -0 -0 -0 -0 -0 -0 -0 -0 -0 -0 -0 -0 -0 -0 -0 -0 -0 -0 -0 -0 -0 -0 -0 -0
-0 -0 -0 -0 -0 -0 -0 -0 -0 -0 -0 -0 -0 -0 -0 -0 -0 -0 -0 -0 -0 -0 -0 -0 -0 -0 -0 -0 -0 -0 -0 -0 -0 -0 -0 -0 -0 -0 -0 -0 -0 -0 -0 -0 -0 -0 -0 -0 -0 -0 -0 -0 -0 -0
-0 -0 -0 -0 -0 -0 -0 -0 -0 -0 -0 -0 -0 -0 -0 -0 -0 -0 -0 -0 -0 -0 -0 -0 -0 -0 -0 -0 -0 -0 -0 -0 -0 -0 -0 -0 -0 -0 -0 -0 -0 -0 -0 -0 -0 -0 -0 -0 -0 -0 -0 -0 -0 -0
-0 -0 -0 -0 -0 -0 -0 -0 -0 -0 -0 -0 -0 -0 -0 -0 -0 -0 -0 -0 -0 -0 -0 -0 -0 -0 -0 -0 -0 -0 -0 -0 -0 -0 -0 -0 -0 -0 -0 -0 -0 -0 -0 -0 -0 -0 -0 -0 -0 -0 -0 -0 -0 -0
-0 -0 -0 -0 -0 -0 -0 -0 -0 -0 -0 -0 -0 -0 -0 -0 -0 -0 -0 -0 -0 -0 -0 -0 -0 -0 -0 -0 -0 -0 -0 -0 -0 -0 -0 -0 -0 -0 -0 -0 -0 -0 -0 -0 -0 -0 -0 -0 -0 -0 -0 -0 -0 -0
-0 -0 -0 -0 -0 -0 -0 -0 -0 -0 -0 -0 -0 -0 -0 -0 -0 -0 -0 -0 -0 -0 -0 -0 -0 -0 -0 -0 -0 -0 -0 -0 -0 -0 -0 -0 -0 -0 -0 -0 -0 -0 -0 -1 -1 -1 -0 -0 -0 -0 -0 -0 -0 -0
-0 -0 -0 -0 -0 -0 -0 -0 -0 -0 -0 -0 -0 -0 -0 -0 -0 -0 -0 -0 -0 -0 -0 -0 -0 -0 -0 -0 -0 -0 -0 -0 -0 -0 -0 -0 -0 -0 -0 -0 -0 -0 -0 -1 -0 -0 -0 -0 -0 -0 -0 -0 -0 -0
-0 -0 -0 -0 -0 -0 -0 -0 -0 -0 -0 -0 -0 -0 -0 -0 -0 -0 -0 -0 -0 -0 -0 -0 -0 -0 -0 -0 -0 -0 -0 -0 -0 -0 -0 -0 -0 -0 -0 -0 -0 -0 -0 -0 -0 -0 -0 -0 -0 -0 -0 -0 -0 -0
-0 -0 -0 -0 -0 -0 -0 -0 -0 -0 -0 -0 -0 -0 -0 -0 -0 -0 -0 -0 -0 -0 -0 -0 -0 -0 -0 -0 -0 -0 -0 -0 -0 -0 -0 -0 -0 -0 -0 -0 -0 -0 -0 -0 -0 -0 -0 -0 -0 -0 -0 -0 -0 -0
-0 -0 -0 -0 -0 -0 -0 -0 -0 -0 -0 -0 -0 -0 -0 -0 -0 -0 -0 -0 -0 -0 -0 -0 -0 -0 -0 -0 -0 -0 -0 -0 -0 -0 -0 -0 -0 -0 -0 -0 -0 -0 -0 -0 -0 -0 -0 -0 -0 -0 -0 -0 -0 -0
-0 -0 -0 -0 -0 -0 -0 -0 -0 -0 -0 -0 -0 -0 -0 -0 -0 -0 -0 -0 -0 -0 -0 -0 -0 -0 -0 -0 -0 -0 -0 -0 -0 -0 -0 -0 -0 -0 -0 -0 -0 -0 -0 -0 -0 -0 -0 -0 -0 -0 -0 -0 -0 -0
-0 -0 -0 -0 -0 -0 -0 -0 -0 -0 -0 -0 -0 -0 -0 -0 -0 -0 -0 -0 -0 -0 -0 -0 -0 -0 -0 -0 -0 -0 -0 -0 -0 -0 -0 -0 -0 -0 -0 -0 -0 -1 -0 -0 -0 -0 -0 -0 -0 -0 -0 -0 -0 -0
-0 -0 -0 -0 -0 -0 -0 -0 -0 -0 -0 -0 -0 -0 -0 -0 -0 -0 -0 -0 -0 -0 -0 -0 -0 -0 -0 -0 -0 -0 -0 -0 -0 -0 -0 -0 -0 -0 -0 -0 -0 -0 -0 -0 -0 -0 -2 -0 -0 -0 -0 -0 -0 -0
-0 -0 -0 -0 -0 -0 -0 -0 -0 -0 -0 -0 -0 -0 -0 -0 -0 -0 -0 -0 -0 -0 -0 -0 -0 -0 -0 -0 -0 -0 -0 -0 -0 -0 -0 -0 -0 -0 -0 -0 -0 -0 -0 -0 -0 -0 -0 -0 -0 -0 -0 -0 -0 -0
-0 -0 -0 -0 -0 -0 -0 -0 -0 -0 -0 -0 -0 -0 -0 -0 -0 -0 -0 -0 -0 -0 -0 -0 -0 -0 -0 -0 -0 -0 -0 -0 -0 -0 -0 -0 -0 -0 -0 -0 -0 -0 -0 -0 -0 -0 -0 -0 -0 -0 -0 -0 -0 -0
-0 -0 -0 -0 -0 -0 -0 -0 -0 -0 -0 -0 -0 -0 -0 -0 -0 -0 -0 -0 -0 -0 -0 -0 -0 -0 -0 -0 -0 -0 -0 -0 -0 -0 -0 -0 -0 -0 -0 -0 -0 -0 -0 -0 -0 -0 -0 -0 -0 -0 -0 -0 -0 -0
-0 -0 -0 -0 -0 -0 -0 -0 -0 -0 -0 -0 -0 -0 -0 -0 -0 -0 -0 -0 -0 -0 -0 -0 -0 -0 -0 -0 -0 -0 -0 -0 -0 -0 -0 -0 -0 -0 -0 -0 -0 -0 -0 -0 -0 -0 -0 -0 -0 -0 -0 -0 -0 -0
Wind_Speed
34 34 36 35 34 34 34 36 38 39 41 39 37 36 35 34 31 31 26 22 20 22 20 18 17 19 19 19 22 25 26 27 22 26 21 21 16 18 15 17 20 23 21 20 20 20 21 29 20 20 27 30 32 33
33 34 35 35 34 34 34 36 36 38 40 40 37 36 36 34 32 31 30 20 16 16 18 19 16 12 10 11 17 21 22 23 20 20 21 18 14 15 16 15 17 15 21 21 21 21 22 24 19 24 28 31 33 34
32 35 36 36 36 35 34 36 35 36 38 40 37 37 36 34 34 31 25 19 18 20 22 17 20 15 14 13 12 20 21 26 18 19 18 15 14 17 16 15 13 16 21 22 24 21 29 20 22 30 32 33 34 34
32 35 38 36 35 35 36 38 36 36 37 39 39 39 37 36 35 27 21 19 19 21 24 22 17 16 16 14 15 14 15 18 17 16 14 13 17 17 16 16 16 16 19 23 23 25 26 20 31 33 34 34 34 34
33 37 38 35 36 35 38 38 37 36 36 38 39 37 35 36 31 25 22 20 17 21 25 22 20 16 13 15 19 19 19 19 18 18 16 18 17 16 16 15 17 19 18 21 21 27 29 33 34 34 34 35 35 34
34 38 36 35 37 36 38 39 37 36 36 37 39 36 34 30 23 23 24 19 17 20 23 25 19 18 16 18 21 20 21 21 19 20 19 18 17 17 15 17 17 20 20 21 22 30 31 32 32 31 34 34 35 34
35 36 35 36 36 36 38 38 40 36 36 38 37 34 33 25 19 23 25 23 18 18 20 23 22 20 19 19 21 21 23 22 21 20 19 19 18 18 18 19 22 23 24 23 22 29 24 26 29 32 33 33 33 33
35 35 36 36 37 37 39 40 36 36 36 38 35 34 27 23 21 22 24 23 18 18 18 22 22 20 24 22 25 26 24 21 23 20 20 20 19 19 20 22 22 24 25 21 26 27 27 29 30 30 30 31 32 32
34 35 35 36 38 39 40 36 36 36 37 36 34 27 24 24 25 25 24 19 20 19 21 22 24 26 26 26 27 26 24 24 21 22 21 20 21 21 22 23 24 25 24 25 28 27 26 27 28 29 29 30 30 31
35 35 36 37 38 40 34 34 35 36 37 33 28 28 30 26 25 21 20 21 21 21 22 23 22 26 30 32 29 29 24 25 25 23 20 21 19 19 24 23 23 24 24 25 26 26 27 27 28 29 29 29 29 30
34 35 36 36 36 33 32 33 35 37 30 31 33 30 27 25 22 22 24 24 22 24 24 25 26 32 29 32 31 25 27 24 25 23 21 20 20 24 25 25 24 24 24 24 24 25 25 27 28 28 28 28 28 28
35 36 35 32 31 31 31 34 33 31 31 30 28 26 24 26 25 26 26 24 26 27 27 29 31 30 29 26 27 25 25 23 25 20 20 21 22 24 26 27 26 26 25 25 25 25 26 26 26 27 27 28 27 27
34 34 29 29 29 29 31 31 31 30 28 27 27 28 29 27 31 32 32 28 30 30 30 33 34 31 27 25 25 25 24 24 19 22 22 20 24 26 27 28 27 27 27 26 25 25 25 26 26 26 27 27 27 26
34 27 27 27 27 29 29 30 31 29 28 31 31 34 31 32 30 28 28 29 28 29 33 34 33 30 28 28 25 25 23 21 23 23 21 23 27 28 28 28 29 29 29 28 27 27 26 26 26 26 26 26 26 26
25 25 26 26 27 28 29 30 29 27 28 29 28 31 30 27 27 26 26 27 30 30 34 33 31 29 29 26 24 23 25 24 22 21 22 27 29 30 31 31 32 31 30 29 28 28 27 27 26 26 26 26 25 25
23 25 25 25 26 27 30 27 27 26 26 27 27 29 29 28 30 30 32 33 32 32 30 30 31 30 28 26 27 27 25 25 23 24 26 29 31 31 33 32 31 31 30 30 29 28 27 27 27 26 25 25 25 24
23 25 24 25 26 28 29 26 27 27 27 27 30 29 28 29 31 31 33 35 32 33 35 32 32 31 26 28 27 24 25 24 26 26 27 30 31 32 32 32 32 31 30 29 29 28 26 26 26 25 25 25 24 24
24 23 24 25 25 25 26 28 26 27 30 29 30 31 30 30 31 33 33 34 34 33 31 30 26 30 30 29 28 26 26 25 24 26 28 29 29 30 30 31 31 30 29 29 29 28 25 26 26 25 25 25 24 24
20 22 25 25 24 26 26 27 27 28 28 27 28 29 29 30 32 33 33 33 29 29 26 27 29 30 29 26 27 26 25 25 26 26 26 26 29 29 31 31 30 30 30 29 29 28 27 26 25 25 25 25 24 24
21 24 24 27 24 25 26 27 25 27 30 28 28 31 29 31 31 34 36 35 33 29 31 30 30 28 27 25 24 23 23 24 25 26 27 30 31 33 32 32 32 33 31 31 29 28 27 26 25 25 26 24 23 23
21 24 26 24 25 26 25 27 28 27 27 27 29 29 30 31 35 37 37 32 33 31 31 28 28 27 25 24 23 23 24 25 25 26 28 31 33 32 34 34 34 33 33 32 31 30 29 28 27 26 25 23 23 23
21 23 22 24 24 24 26 29 27 27 27 28 31 30 32 34 34 34 31 35 32 30 28 28 29 28 28 27 27 25 25 26 26 27 29 32 33 34 34 34 34 34 33 31 31 31 29 28 28 24 24 24 23 23
20 21 23 26 25 27 26 26 29 31 30 32 30 33 34 33 31 27 31 31 29 29 29 29 29 28 27 25 25 25 26 27 27 27 28 28 28 30 31 31 31 31 30 29 29 28 27 27 27 26 25 24 24 24
22 23 25 25 29 28 25 29 29 30 30 33 35 35 34 33 30 30 34 32 31 29 32 32 30 29 27 25 24 24 25 25 24 24 26 27 27 28 29 28 28 27 26 27 28 28 28 27 27 27 26 26 26 25
22 26 25 28 27 27 28 29 32 32 34 34 35 35 34 31 33 32 35 34 34 33 32 31 30 29 27 24 23 22 21 22 23 21 22 24 24 25 27 26 26 26 25 27 28 28 27 27 27 26 27 26 27 27
24 26 26 27 27 27 27 29 31 33 33 35 36 33 31 33 34 34 34 32 34 33 31 31 30 29 27 24 23 21 18 17 17 15 16 19 16 15 16 27 28 27 26 28 28 27 27 27 27 28 27 26 27 26
23 24 24 24 24 24 26 27 29 31 33 36 35 35 35 38 36 32 28 28 30 29 27 25 25 25 25 23 22 20 17 15 15 13 11 9 7 7 8 11 11 18 22 27 27 26 27 28 28 29 28 28 27 25
20 20 21 23 26 26 26 28 30 32 33 31 32 37 36 36 33 29 27 25 27 26 26 24 22 21 21 22 21 20 18 16 13 13 13 15 13 7 6 2 8 17 24 26 26 28 28 27 28 28 29 29 25 25
19 19 20 23 24 26 27 28 29 29 28 30 33 34 32 28 26 25 24 24 25 25 28 27 25 23 21 20 20 19 18 19 19 15 12 11 11 11 10 5 1 4 8 16 25 27 27 25 27 26 26 28 28 27
18 18 20 22 24 25 25 25 27 26 26 26 27 28 28 27 25 23 23 24 25 26 25 23 23 23 24 23 20 18 18 17 18 15 13 9 7 4 5 2 2 1 2 6 14 20 23 25 25 25 24 24 23 23
18 19 21 22 23 23 24 24 24 25 25 26 27 29 31 30 26 24 25 25 24 24 24 25 25 24 23 22 21 20 18 19 15 12 10 7 5 5 10 10 9 8 8 5 16 20 20 21 21 20 21 21 20 19
17 18 19 22 23 22 22 23 24 25 26 28 29 29 31 31 32 28 26 26 27 27 26 25 26 24 21 20 18 17 15 16 14 12 10 11 12 18 17 12 12 19 15 10 23 22 21 20 19 19 18 17 16 16
18 19 20 21 21 21 21 23 25 25 25 27 29 29 30 32 33 29 25 24 26 26 25 24 23 22 22 21 20 19 18 16 15 15 13 14 13 14 14 13 20 20 20 20 22 21 19 20 19 18 17 15 14 14
Wind_Direction
351 351 352 352 351 351 352 354 355 356 357 356 357 358 358 358 359 359 355 2 2 355 347 358 11 8 10 12 14 12 20 21 28 28 33 31 35 37 45 40 17 332 318 316 300 289 279 315 302 291 286 289 291 293
348 349 350 349 349 349 349 350 351 353 355 355 355 356 356 356 356 356 351 0 1 356 356 353 354 357 10 17 16 20 18 17 26 26 25 29 24 35 28 33 32 24 328 311 305 296 307 314 321 317 307 297 299 296
345 346 348 347 347 347 347 347 347 349 351 353 354 354 354 354 354 353 351 360 9 2 356 12 15 28 31 27 29 16 19 12 20 16 16 28 25 26 23 24 29 19 336 319 307 305 304 304 302 313 309 303 304 304
342 343 344 344 345 345 346 346 346 346 349 351 352 352 353 354 354 359 4 14 12 8 3 9 21 16 20 32 25 14 1 10 11 15 16 17 12 20 17 15 9 8 348 331 314 307 303 310 300 304 305 306 306 303
340 341 342 342 343 343 345 345 345 345 347 349 350 351 352 355 360 9 15 16 21 9 359 358 360 18 28 20 10 12 14 9 9 9 7 4 8 7 7 11 3 359 351 340 326 311 305 294 300 302 302 304 304 299
339 340 341 341 341 341 343 345 344 345 347 349 349 351 353 355 6 8 6 17 22 15 3 2 13 13 16 11 8 9 9 6 5 2 359 4 7 0 0 358 2 354 347 336 327 312 302 300 302 310 305 304 304 304
337 339 339 340 341 341 341 342 343 347 348 348 349 349 352 358 6 6 6 7 11 11 6 2 5 16 12 8 5 5 2 1 0 359 359 359 359 358 355 348 350 345 338 331 328 320 322 319 307 306 308 309 311 309
336 337 338 339 340 340 340 341 347 348 347 347 349 352 2 13 19 11 8 9 14 13 12 4 4 8 9 1 359 357 355 358 0 360 0 358 359 358 352 351 349 343 337 336 323 317 314 312 314 316 313 313 315 315
334 335 337 338 339 340 341 347 348 348 348 350 354 4 9 9 5 3 4 11 20 17 8 7 2 358 4 358 353 355 358 351 359 356 356 356 354 352 350 348 344 341 339 331 319 317 316 314 316 319 321 321 318 318
333 335 337 339 341 342 348 349 350 350 351 356 5 3 359 5 359 6 14 15 16 16 11 6 5 357 355 352 351 351 354 351 348 354 1 357 360 2 353 349 345 342 339 332 323 318 315 314 316 318 320 320 321 321
335 337 340 341 344 349 350 351 352 354 2 3 358 358 358 1 10 12 8 8 11 7 8 4 1 351 357 348 347 353 348 349 345 352 352 355 353 352 349 347 344 341 337 331 325 321 317 311 310 314 318 322 322 323
338 340 341 347 350 352 353 354 358 0 358 356 353 357 5 6 8 5 6 8 7 1 0 355 352 351 350 353 349 351 347 350 347 358 354 350 354 351 347 343 339 335 329 326 323 317 316 314 311 312 316 320 322 324
340 341 348 350 353 355 357 359 359 358 360 3 3 1 2 6 360 359 357 359 355 356 355 351 348 350 352 354 348 349 348 348 356 352 350 356 354 349 344 341 336 329 325 320 319 317 314 313 316 315 314 321 324 326
340 348 351 353 355 357 360 360 358 1 1 358 357 354 0 358 1 1 357 355 356 353 350 348 347 349 350 349 351 349 354 354 349 348 353 354 348 342 338 335 330 323 319 319 315 313 314 314 315 317 316 317 319 322
349 351 353 356 358 359 358 358 1 4 1 358 360 356 359 2 3 2 0 357 355 352 350 348 349 351 350 351 358 355 352 353 358 355 353 347 342 338 333 329 324 320 314 314 313 311 312 314 313 314 317 317 318 320
352 353 356 360 0 359 358 2 4 6 7 5 5 358 359 358 358 358 356 354 355 352 353 353 351 352 355 357 352 351 349 349 351 349 345 342 337 334 329 327 324 320 318 313 312 310 310 311 313 313 315 318 317 318
354 353 359 0 360 0 4 5 5 7 6 5 2 6 3 2 359 357 356 354 355 353 351 353 353 353 354 354 355 0 353 349 346 345 343 339 335 331 328 324 321 319 319 316 314 313 312 312 311 312 310 315 315 316
352 1 1 359 1 5 6 7 9 6 3 7 2 3 7 5 0 0 358 358 358 356 357 357 359 356 354 352 350 351 350 349 350 347 343 341 339 334 331 326 322 320 318 315 313 312 315 312 309 309 310 312 313 314
6 5 0 3 6 4 3 6 9 3 6 8 8 8 8 8 9 5 3 3 6 9 5 5 1 357 356 358 353 352 353 352 350 349 347 345 339 336 330 326 324 322 319 317 314 313 312 311 309 309 308 310 309 311
11 6 5 5 7 5 5 7 13 9 3 5 8 7 8 7 7 7 9 9 9 10 7 4 3 1 359 1 0 358 356 354 351 348 345 340 335 329 326 323 320 317 315 315 313 313 314 312 312 309 306 308 308 307
6 3 5 9 11 16 13 9 9 10 8 8 9 9 8 13 10 9 8 13 14 12 10 13 9 8 6 4 3 359 356 353 349 345 340 334 332 330 324 319 316 313 311 309 308 306 308 307 306 308 308 308 307 307
6 7 11 14 14 14 13 13 11 10 10 10 8 10 8 6 7 9 14 15 17 16 15 11 8 5 2 360 357 355 352 349 346 343 338 333 330 327 325 321 317 312 309 308 307 304 302 303 305 310 306 305 305 302
12 14 14 12 10 9 7 13 10 10 8 7 10 8 8 10 12 18 16 17 17 17 14 10 5 4 1 1 1 360 358 354 352 349 345 343 340 335 328 325 321 317 313 311 308 305 304 304 302 305 304 302 300 299
16 11 7 8 8 5 12 10 14 12 13 11 9 8 11 12 15 18 14 16 14 13 10 8 8 7 9 11 12 9 7 5 3 2 357 354 349 344 338 333 329 325 323 318 310 304 303 301 300 299 299 295 293 293
5 3 8 4 10 10 10 11 13 14 10 12 12 12 13 16 14 15 14 14 14 13 12 13 13 14 13 12 13 13 14 12 9 8 9 4 0 355 343 339 334 331 329 321 312 305 302 300 298 297 295 293 289 290
4 6 7 7 12 13 14 14 15 14 16 15 15 16 19 18 16 15 15 16 16 16 16 16 16 14 15 16 13 14 15 19 19 18 19 17 20 20 18 336 324 326 329 319 306 304 299 299 295 293 291 292 290 291
5 8 18 24 25 27 25 27 27 24 19 17 17 18 20 17 16 20 23 24 21 22 22 23 23 20 19 19 21 22 25 31 31 26 22 26 42 52 50 34 13 272 269 290 301 280 285 285 283 283 283 284 287 290
19 24 23 25 29 31 30 28 27 24 23 25 26 24 23 22 22 26 28 31 28 27 26 27 28 28 27 26 26 28 32 37 38 40 40 43 52 73 82 134 239 263 284 291 277 286 279 274 271 272 273 276 284 288
29 37 38 30 30 32 32 33 33 34 40 36 32 29 31 35 35 35 35 34 32 31 27 26 28 29 31 33 37 40 40 39 37 37 40 46 48 50 48 37 304 238 244 257 278 287 282 266 283 290 290 279 276 278
35 41 37 36 37 37 41 46 44 49 50 47 44 39 39 39 41 44 41 38 34 32 30 30 31 32 31 33 35 40 45 49 45 42 41 39 33 338 318 317 321 32 129 219 253 271 279 287 283 278 276 281 281 279
50 48 43 44 47 52 55 57 57 55 52 47 45 40 38 38 44 50 46 44 41 36 34 34 34 36 37 38 40 40 41 48 42 46 48 32 7 6 58 50 64 71 76 228 272 286 287 290 289 278 279 285 285 285
44 46 55 53 53 61 62 58 54 49 47 44 43 43 42 42 42 48 50 48 43 39 38 38 37 38 42 45 50 51 51 49 48 48 39 41 45 57 53 68 69 55 62 79 336 332 326 319 315 310 304 307 305 295
54 57 57 56 55 55 62 56 52 48 48 45 45 44 45 44 44 49 54 55 48 44 42 42 42 45 48 51 54 56 56 54 56 53 51 54 52 61 71 76 71 69 67 68 59 59 354 335 335 331 330 327 319 309